Wind_Speed
9 11 13 11 11 11 12 15 16 17 17 16 18 18 20 24 26 26 26 34 39 41 42 42 44 45 44 44 47 49 53 54 55 56 58 60 58 57 57 54 49 53 51 55
5 7 6 7 10 12 12 12 13 13 13 16 18 17 18 20 22 24 27 33 36 40 43 44 42 43 44 42 45 50 53 54 56 59 60 63 65 63 64 65 62 60 63 65
1 3 6 6 7 7 7 10 9 11 13 15 14 15 18 18 19 21 24 31 35 39 41 42 44 44 43 45 47 50 53 54 54 57 61 61 64 68 69 71 72 68 68 68
5 6 7 7 11 11 7 11 10 8 9 12 14 15 14 17 21 28 32 31 35 35 40 43 47 50 52 52 55 57 57 57 57 56 63 68 68 68 73 77 80 82 78 80
11 10 12 12 13 15 15 15 12 9 13 19 21 22 14 17 23 26 31 38 40 44 47 51 52 55 58 58 59 58 61 61 62 63 65 68 75 76 81 86 89 91 92 92
12 14 16 19 21 20 21 21 19 20 23 22 28 28 29 25 18 29 35 36 40 46 49 53 59 61 63 62 59 62 63 65 68 69 75 78 77 84 89 95 99 98 100 98
13 17 19 22 25 26 23 21 23 24 24 28 23 27 34 36 37 39 41 42 44 49 53 56 58 62 61 61 63 64 66 69 73 78 81 81 84 88 95 101 102 101 98 98
18 11 16 19 23 24 24 19 20 20 22 27 35 37 43 37 39 41 38 42 47 48 52 53 57 58 58 61 66 71 72 73 76 78 80 83 88 94 100 106 105 104 103 103
16 15 17 18 22 23 23 27 25 24 28 29 35 39 49 47 45 45 48 48 49 54 58 62 63 65 66 69 72 77 83 84 85 86 89 91 97 101 103 110 109 109 108 106
18 20 20 17 20 22 26 29 31 30 32 29 37 36 51 46 52 57 60 62 63 64 65 67 69 71 73 77 79 82 84 86 90 91 94 98 103 107 110 116 114 113 110 111
20 21 23 23 23 24 26 32 34 37 38 32 30 35 52 49 56 62 64 65 66 66 71 74 76 77 79 78 82 85 85 88 92 95 99 105 110 115 118 122 119 119 114 111
27 22 27 27 30 31 32 37 39 37 34 39 39 42 58 60 59 59 62 65 68 73 78 80 82 85 87 86 85 86 89 93 97 99 104 110 117 119 125 126 119 117 112 106
33 33 28 34 34 36 45 55 53 46 42 44 41 46 58 62 63 67 69 71 76 80 84 86 87 88 91 95 95 95 95 96 99 104 112 115 122 127 130 129 115 113 108 100
38 39 36 38 46 48 45 52 59 57 51 48 55 48 59 62 65 70 74 76 81 85 87 89 91 93 96 100 98 100 101 103 109 116 118 119 129 133 133 120 114 109 103 93
39 45 47 48 45 41 42 47 54 58 61 60 56 63 65 69 73 75 80 82 84 85 90 94 97 100 103 103 104 106 105 113 117 123 124 129 133 139 125 115 109 103 97 89
33 36 37 38 45 43 44 52 56 60 62 65 66 68 76 76 80 83 83 85 85 90 95 97 99 103 106 107 106 107 112 118 122 126 130 135 135 135 114 109 105 99 92 87
37 37 37 39 47 50 54 60 64 64 67 70 71 73 75 78 80 82 85 88 90 97 99 99 103 105 107 110 113 118 122 126 131 134 136 136 136 117 109 106 101 94 88 82
44 48 49 49 52 51 58 70 73 69 72 74 74 77 81 82 86 90 93 94 97 103 104 105 108 110 114 119 121 125 130 135 136 139 140 139 121 113 108 102 94 89 83 76
56 56 58 57 59 61 66 76 76 75 74 80 81 85 87 89 88 92 99 101 106 111 112 113 115 117 119 125 128 134 137 139 139 139 137 129 117 109 102 94 89 84 77 73
61 64 64 65 63 63 72 76 80 83 82 86 90 94 96 97 99 99 105 109 112 115 117 120 122 129 130 132 136 139 139 139 137 135 130 116 111 101 92 88 84 77 73 70
62 63 67 70 75 72 81 82 83 86 84 89 94 98 99 101 107 111 111 113 117 120 124 129 132 135 137 139 141 141 137 132 126 122 111 110 100 92 88 83 77 73 71 69
68 72 75 78 81 78 84 87 90 93 92 98 97 101 105 108 111 116 120 124 126 127 132 135 138 140 140 136 131 127 126 119 113 105 104 98 91 86 82 77 73 71 69 67
76 82 82 86 89 89 89 93 94 100 103 103 107 110 114 121 123 126 129 131 133 135 136 132 131 128 124 122 121 119 112 106 103 101 94 88 84 83 78 72 69 68 67 64
81 88 88 87 90 95 94 98 105 107 109 112 116 117 119 124 125 129 129 130 132 130 125 124 120 120 119 114 108 102 101 101 94 89 85 83 81 78 72 69 66 64 63 60
92 97 103 95 97 100 101 110 113 116 116 116 117 121 123 125 126 128 127 125 122 119 118 116 112 109 104 98 98 98 96 90 87 84 83 80 76 71 69 67 64 63 59 56
99 105 108 103 104 110 108 109 110 114 116 118 122 125 125 127 122 120 119 115 113 110 105 101 100 99 99 97 94 92 90 87 85 83 79 74 70 68 66 64 64 58 57 51
Wind_Direction
106 89 87 77 71 80 75 78 63 49 47 45 45 41 43 36 29 27 24 20 18 14 9 5 3 2 357 355 355 354 354 351 345 348 344 347 344 342 340 331 322 323 317 317
138 79 64 60 57 46 50 40 31 38 34 34 28 28 25 21 21 20 15 10 5 2 0 357 357 353 354 348 342 343 344 344 341 337 338 335 333 334 334 331 332 325 320 316
118 47 18 23 13 46 53 42 32 9 9 2 4 350 2 16 12 4 359 355 352 352 353 350 345 344 342 340 340 340 340 338 336 333 330 331 330 328 325 325 325 328 323 321
244 282 316 338 342 333 332 348 351 1 26 10 357 351 351 5 351 352 352 357 355 350 344 342 341 339 339 341 341 341 337 333 331 333 330 327 331 328 325 323 320 321 320 318
253 277 290 311 316 319 312 324 328 321 338 335 339 332 325 324 340 348 350 347 345 347 343 340 338 335 335 336 336 333 330 329 328 331 332 333 328 328 328 326 323 320 318 316
276 282 296 308 313 320 320 316 318 324 332 342 339 340 341 332 333 341 341 341 341 339 338 335 334 334 333 331 328 325 324 323 323 326 326 328 326 324 325 323 322 319 317 316
292 297 292 293 301 308 312 313 314 320 325 323 336 328 327 324 328 332 336 333 333 331 334 332 329 327 326 324 321 325 324 324 325 325 324 324 324 323 321 322 322 319 316 316
283 283 308 315 308 307 306 309 309 311 320 322 319 323 314 318 319 325 328 326 324 328 328 321 318 322 324 320 319 320 323 325 324 325 323 323 323 322 322 323 322 321 318 316
284 297 306 303 300 301 297 299 305 308 310 316 313 315 306 309 313 322 324 323 323 322 325 321 320 317 317 319 319 322 321 323 323 323 323 323 323 324 322 323 322 321 320 317
288 305 301 299 298 305 300 293 295 298 301 307 307 309 303 305 313 319 321 321 323 325 320 321 321 321 320 320 321 321 322 323 322 322 321 323 323 323 322 321 321 321 320 318
287 298 300 301 302 301 299 305 297 295 298 301 296 310 304 309 313 315 316 317 317 315 315 319 320 322 320 323 322 322 322 323 321 322 321 322 323 324 323 323 320 320 319 317
283 286 290 297 300 297 300 299 297 290 295 301 302 313 305 306 308 308 310 313 313 317 319 319 319 322 321 322 320 319 321 321 321 321 321 321 322 324 323 323 320 320 318 316
284 283 283 292 301 305 308 306 304 298 298 296 299 299 303 304 308 310 313 314 314 316 316 316 319 319 319 319 315 315 317 319 319 319 321 321 322 323 323 322 319 319 317 314
282 283 278 285 292 301 298 302 302 303 301 298 300 299 299 301 304 307 309 311 312 313 313 314 316 318 316 314 313 312 313 313 318 320 320 321 321 322 322 319 320 318 316 314
288 286 290 293 297 300 298 293 294 297 299 300 299 302 302 303 305 305 307 309 310 310 309 312 315 312 311 312 312 313 312 314 317 318 319 320 322 321 320 320 319 316 316 313
290 290 293 295 301 299 298 296 296 297 301 303 305 308 306 306 304 304 305 305 305 306 310 312 310 311 310 312 311 312 313 314 316 318 319 320 320 321 319 320 318 317 315 311
293 291 289 291 296 299 299 299 297 299 298 298 298 298 300 304 305 303 303 304 308 310 310 309 308 309 311 312 312 312 313 315 315 317 319 321 321 320 319 320 318 315 313 311
293 294 294 293 294 299 298 294 294 295 296 297 301 301 303 306 308 307 305 304 305 307 307 307 307 309 310 311 312 312 313 315 315 316 319 320 320 320 320 318 316 315 313 312
293 295 296 296 297 302 303 299 302 302 301 298 301 303 303 303 305 304 303 303 305 307 308 307 307 308 309 310 311 312 313 314 315 317 317 320 320 319 318 316 316 315 314 313
293 296 299 300 302 304 300 302 302 303 303 301 301 302 302 301 301 302 302 304 305 306 306 306 307 309 309 310 310 311 313 314 315 315 318 318 319 317 316 316 316 315 314 313
289 294 295 297 300 300 295 299 300 300 299 299 302 304 305 304 304 304 304 304 304 305 305 305 306 307 308 308 308 309 311 312 313 316 316 318 317 315 316 316 316 315 315 313
291 292 294 296 299 301 301 302 304 304 304 304 303 302 302 302 302 302 303 303 303 303 303 304 304 305 306 307 308 310 311 312 314 316 317 316 314 314 315 315 316 315 314 313
294 295 297 299 303 304 305 303 302 302 303 302 301 301 302 302 302 302 302 303 303 304 305 306 306 307 308 309 309 310 312 314 316 317 316 315 314 314 314 315 315 315 313 314
296 296 298 299 300 302 302 301 302 301 301 302 301 302 303 302 302 301 302 303 305 306 306 306 306 307 307 308 310 313 316 317 316 316 315 313 314 314 315 315 315 314 313 313
299 297 296 299 299 299 301 300 300 299 299 300 302 304 305 304 304 304 305 305 307 307 306 306 306 308 311 313 315 316 316 316 316 315 313 314 314 315 315 315 315 315 314 314
297 295 296 298 297 296 297 298 299 302 302 302 305 305 306 307 308 308 307 307 307 306 307 309 310 312 313 315 315 316 315 314 314 313 313 314 314 314 315 315 314 314 314 315
Height
10686 10685 10683 10681 10678 10675 10673 10671 10668 10665 10663 10660 10657 10654 10651 10647 10645 10641 10640 10636 10633 10630 10627 10623 10619 10615 10610 10606 10601 10597 10593 10587 10580 10577 10570 10565 10561 10555 10550 10545 10542 10534 10527 10519
10687 10686 10684 10682 10678 10676 10674 10671 10669 10667 10663 10660 10656 10653 10650 10648 10645 10642 10639 10636 10632 10628 10625 10622 10618 10612 10608 10603 10599 10593 10587 10582 10575 10566 10562 10555 10548 10543 10538 10531 10526 10520 10511 10504
10686 10684 10682 10680 10678 10676 10675 10673 10670 10667 10663 10659 10657 10654 10650 10648 10645 10641 10637 10634 10629 10626 10624 10619 10613 10608 10603 10597 10591 10586 10579 10574 10569 10560 10550 10547 10538 10526 10519 10514 10508 10505 10498 10490
10685 10682 10680 10678 10677 10675 10673 10671 10668 10666 10663 10659 10656 10653 10651 10646 10642 10637 10634 10630 10627 10624 10619 10613 10606 10600 10594 10587 10577 10571 10566 10560 10555 10550 10540 10524 10521 10516 10504 10494 10487 10480 10475 10468
10683 10680 10678 10677 10676 10673 10671 10669 10667 10664 10661 10657 10654 10649 10644 10641 10636 10634 10630 10624 10619 10614 10608 10602 10596 10590 10583 10575 10570 10563 10555 10546 10539 10532 10526 10519 10503 10496 10485 10475 10467 10456 10445 10435
10681 10680 10678 10675 10673 10671 10669 10667 10664 10661 10657 10654 10648 10643 10639 10636 10634 10630 10626 10619 10614 10608 10601 10593 10586 10579 10571 10567 10563 10554 10548 10538 10529 10521 10510 10502 10493 10477 10471 10459 10446 10433 10419 10406
10680 10677 10675 10672 10669 10667 10665 10663 10659 10656 10654 10650 10648 10643 10636 10629 10625 10621 10615 10610 10607 10602 10595 10587 10580 10574 10569 10561 10551 10547 10540 10529 10518 10505 10494 10487 10477 10467 10450 10439 10429 10412 10400 10388
10676 10676 10671 10668 10666 10663 10661 10659 10656 10654 10650 10646 10637 10635 10626 10625 10619 10616 10614 10609 10603 10598 10593 10586 10578 10571 10563 10553 10542 10531 10524 10515 10504 10497 10488 10475 10462 10450 10435 10420 10405 10389 10371 10355
10671 10670 10668 10665 10662 10659 10657 10654 10652 10650 10646 10644 10638 10633 10619 10614 10609 10608 10602 10598 10595 10588 10579 10571 10565 10558 10549 10540 10530 10521 10505 10494 10484 10472 10462 10453 10441 10429 10414 10398 10385 10367 10348 10331
10668 10665 10663 10661 10657 10654 10651 10648 10645 10644 10640 10639 10633 10627 10611 10609 10602 10593 10587 10580 10574 10568 10561 10556 10549 10542 10534 10522 10512 10501 10489 10477 10463 10453 10441 10429 10416 10403 10388 10373 10356 10341 10322 10304
10661 10660 10657 10654 10652 10649 10645 10641 10638 10636 10632 10629 10626 10623 10603 10602 10595 10586 10579 10572 10564 10558 10552 10543 10533 10526 10516 10504 10492 10482 10473 10461 10449 10436 10422 10408 10393 10378 10361 10343 10326 10308 10292 10275
10655 10654 10650 10648 10644 10643 10639 10634 10630 10627 10627 10619 10614 10614 10592 10589 10586 10580 10573 10564 10551 10541 10531 10523 10513 10504 10491 10484 10474 10465 10457 10446 10432 10420 10406 10390 10373 10357 10340 10320 10300 10283 10265 10247
10650 10648 10645 10639 10640 10638 10632 10623 10617 10618 10616 10611 10608 10603 10586 10577 10572 10562 10555 10546 10534 10525 10516 10505 10497 10489 10477 10467 10457 10446 10436 10426 10414 10400 10386 10369 10351 10332 10313 10295 10276 10256 10238 10221
10643 10637 10637 10633 10629 10628 10626 10616 10603 10602 10603 10603 10590 10592 10577 10568 10561 10554 10544 10536 10525 10513 10501 10491 10483 10472 10462 10452 10439 10427 10415 10404 10391 10374 10358 10345 10326 10305 10287 10269 10249 10230 10211 10195
10636 10631 10628 10623 10619 10618 10616 10607 10599 10590 10584 10583 10587 10572 10565 10556 10549 10540 10528 10520 10512 10501 10488 10477 10464 10456 10445 10434 10419 10405 10390 10378 10366 10349 10331 10314 10297 10279 10257 10238 10220 10202 10185 10170
10628 10624 10621 10617 10608 10609 10607 10596 10589 10583 10578 10570 10566 10562 10543 10542 10531 10523 10516 10507 10499 10488 10474 10465 10451 10437 10423 10411 10398 10382 10367 10354 10337 10323 10305 10287 10270 10250 10229 10210 10191 10174 10161 10148
10617 10615 10613 10613 10604 10601 10595 10583 10575 10574 10566 10558 10556 10548 10541 10531 10523 10512 10502 10492 10480 10469 10459 10448 10436 10421 10405 10389 10375 10359 10343 10328 10309 10294 10276 10255 10235 10216 10198 10180 10164 10151 10138 10124
10607 10603 10601 10600 10595 10595 10585 10566 10560 10563 10552 10542 10537 10528 10521 10514 10506 10491 10480 10473 10465 10453 10439 10426 10412 10399 10381 10365 10349 10335 10317 10301 10284 10265 10246 10226 10207 10187 10171 10156 10141 10129 10116 10103
10589 10589 10586 10584 10583 10583 10575 10548 10546 10544 10544 10527 10519 10511 10505 10496 10494 10480 10459 10450 10437 10425 10412 10399 10385 10373 10361 10344 10326 10308 10291 10271 10254 10236 10219 10199 10181 10164 10149 10135 10120 10107 10096 10083
10578 10573 10569 10563 10567 10568 10547 10541 10534 10526 10526 10511 10502 10493 10481 10474 10463 10463 10446 10428 10417 10401 10384 10369 10358 10342 10327 10314 10297 10279 10263 10247 10228 10210 10192 10174 10158 10143 10128 10114 10100 10089 10077 10065
10567 10563 10556 10551 10548 10553 10532 10530 10523 10511 10507 10498 10484 10470 10459 10449 10433 10419 10412 10402 10387 10374 10358 10341 10328 10311 10298 10282 10268 10251 10236 10220 10203 10186 10167 10151 10135 10121 10108 10095 10082 10071 10060 10048
10553 10547 10542 10540 10529 10531 10518 10510 10496 10485 10483 10468 10465 10449 10435 10424 10413 10400 10385 10370 10357 10348 10332 10316 10299 10283 10268 10252 10235 10220 10206 10190 10174 10159 10143 10129 10115 10102 10089 10077 10064 10054 10043 10033
10535 10524 10524 10513 10510 10505 10499 10484 10476 10461 10453 10450 10436 10427 10414 10397 10386 10374 10359 10343 10328 10314 10298 10280 10263 10248 10233 10220 10205 10191 10176 10162 10148 10132 10119 10107 10095 10082 10070 10060 10049 10038 10027 10018
10525 10504 10503 10505 10497 10483 10480 10466 10451 10440 10429 10422 10408 10397 10384 10369 10358 10343 10332 10313 10299 10282 10266 10249 10233 10217 10204 10194 10180 10164 10150 10137 10124 10112 10099 10088 10076 10063 10052 10043 10034 10025 10014 10004
10497 10483 10472 10490 10479 10467 10464 10439 10427 10414 10404 10395 10384 10369 10355 10339 10326 10310 10300 10284 10267 10251 10236 10222 10208 10193 10179 10167 10154 10142 10128 10117 10105 10093 10081 10069 10056 10046 10037 10027 10019 10009 10000 9992
10470 10455 10450 10460 10455 10437 10440 10429 10409 10390 10376 10367 10354 10345 10334 10310 10295 10279 10265 10252 10238 10224 10210 10197 10182 10169 10156 10143 10133 10122 10109 10099 10087 10075 10062 10052 10041 10031 10022 10013 10002 9996 9987 9980